AirNav   TITAN Aviation Fuels
 
 427 users online  

KUKT Quakertown Airport
Quakertown, Pennsylvania, USA

GOING TO QUAKERTOWN?


FAA INFORMATION EFFECTIVE 23 MARCH 2023

Location

FAA Identifier: UKT
Lat/Long: 40-26-06.5000N 075-22-55.0000W
40-26.108333N 075-22.916667W
40.4351389,-75.3819444
(estimated)
Elevation: 525.1 ft. / 160.1 m (surveyed)
Variation: 12W (2005)
From city: 2 miles W of QUAKERTOWN, PA
Time zone: UTC -4 (UTC -5 during Standard Time)
Zip code: 18951

Airport Operations

Airport use: Open to the public
Activation date: 11/1946
Control tower: no
ARTCC: NEW YORK CENTER
FSS: WILLIAMSPORT FLIGHT SERVICE STATION
NOTAMs facility: UKT (NOTAM-D service available)
Attendance: 0830-1700
Wind indicator: lighted
Segmented circle: no
Lights: DUSK-DAWN. ACTVT MIRL RY 11/29 AND REIL RYS 11 & 29 - CTAF.
Beacon: white-green (lighted land airport)
Operates sunset to sunrise.

Airport Communications

CTAF/UNICOM: 122.725
WX AWOS-3: 119.475 (215-538-7610)
PHILADELPHIA APPROACH: 123.8
PHILADELPHIA DEPARTURE: 123.8
CLEARANCE DELIVERY: 118.55
WX AWOS-3 at CKZ (5 nm SE): 126.325 (215-257-7291)
WX AWOS-3 at XLL (9 nm NW): 127.875 (610-231-3111)
WX ASOS at ABE (13 nm N): 126.975 (610-264-1765)
WX ASOS at DYL (13 nm SE): 118.875 (215-345-0392)
WX ASOS at PTW (14 nm SW): 119.425 (610-495-0823)
WX AWOS-3 at LOM (19 nm S): 118.925 (215-646-1068)
WX AWOS-3 at N40 (20 nm NE): 121.725
  • CLEARANCE DELIVERY PHILADELPHIA APCH TF 800-354-9884.

Nearby radio navigation aids

VOR radial/distance  VOR name  Freq  Var
PTWr042/15.2POTTSTOWN VORTAC116.5009W
ETXr131/16.3EAST TEXAS VOR/DME110.2009W
FJCr179/17.8ALLENTOWN VORTAC117.5010W
ARDr307/24.3YARDLEY VOR/DME108.2010W
SBJr263/30.5SOLBERG VOR/DME112.9010W
BWZr240/33.6BROADWAY VOR/DME114.2011W
MXEr032/33.7MODENA VORTAC113.2009W

Airport Services

Fuel available: 100LL
100LL:100 LL AVBL 24 HRS SELF-SERVE CREDIT CARD
Parking: tiedowns
Airframe service: MAJOR
Powerplant service: MAJOR
Bottled oxygen: NONE
Bulk oxygen: NONE

Runway Information

Runway 11/29

Dimensions: 3210 x 75 ft. / 978 x 23 m
Surface: asphalt, in good condition
Weight bearing capacity: 
Single wheel: 12.0
Runway edge lights: medium intensity
RUNWAY 11  RUNWAY 29
Latitude: 40-26.149525N40-26.068135N
Longitude: 075-23.258947W075-22.575312W
Elevation: 525.1 ft.505.1 ft.
Traffic pattern: leftleft
Runway heading: 111 magnetic, 099 true291 magnetic, 279 true
Displaced threshold: no190 ft.
Declared distances: TORA:3210 TODA:3210TORA:3210 TODA:3210
Markings: nonprecision, in good conditionnonprecision, in good condition
Visual slope indicator: 2-light PAPI on left (4.00 degrees glide path)2-light PAPI on left (4.00 degrees glide path)
Runway end identifier lights: yesyes
Touchdown point: yes, no lightsyes, no lights
Obstructions: 81 ft. trees, 501 ft. from runway, 266 ft. right of centerline, 3:1 slope to clear92 ft. tree, 1706 ft. from runway, 425 ft. right of centerline, 16:1 slope to clear
34 FT TREES 155 FT FM RWY END 199 FT LEFT.

Airport Ownership and Management from official FAA records

Ownership: Publicly-owned
Owner: BUCKS COUNTY AIRPORT AUTH
OLD EASTON RD, PO BOX 1185
DOYLESTOWN, PA 18901
Phone 215-345-1970
Manager: MIKE CAMPBELL
2425 MILFORD SQ PIKE
QUAKERTOWN, PA 18951
Phone 215-538-3055

Airport Operational Statistics

Aircraft based on the field: 86
Single engine airplanes: 76
Multi engine airplanes: 6
Jet airplanes: 1
Helicopters: 1
Ultralights: 2
    
Aircraft operations: avg 81/day *
79% local general aviation
20% transient general aviation
<1% air taxi
<1% military
* for 12-month period ending 03 November 2022

Additional Remarks

DEER ON & INVOF ARPT.
ACFT WITH WING SPAN GREATER THAN 54.5 FEET MUST COORDINATE WITH AMGR.
FOR CD CTC PHILADELPHIA APCH AT 800-354-9884.

Instrument Procedures

NOTE: All procedures below are presented as PDF files. If you need a reader for these files, you should download the free Adobe Reader.

NOT FOR NAVIGATION. Please procure official charts for flight.
FAA instrument procedures published for use from 23 March 2023 at 0901Z to 20 April 2023 at 0900Z.

 
IAPs - Instrument Approach Procedures
RNAV (GPS) RWY 11   download (203KB)
RNAV (GPS) RWY 29   download (208KB)
NOTE: Special Alternate Minimums apply   download (34KB)
NOTE: Special Take-Off Minimums/Departure Procedures apply   download (149KB)

Other nearby airports with instrument procedures:

KCKZ - Pennridge Airport (5 nm SE)
KXLL - Allentown Queen City Municipal Airport (9 nm NW)
KABE - Lehigh Valley International Airport (13 nm N)
KDYL - Doylestown Airport (13 nm SE)
KPTW - Heritage Field Airport (14 nm SW)
N47 - Pottstown Municipal Airport (17 nm SW)
KLOM - Wings Field Airport (19 nm S)
N85 - Alexandria Airport (19 nm NE)
N43 - Braden Airpark (19 nm N)
N40 - Sky Manor Airport (20 nm NE)
 
Loc | Ops | Rwys | IFR | FBO | Links
Com | Nav | Svcs | Stats | Notes
Area around KUKT (Quakertown Airport)
 
Road maps at: MapQuest Bing Google
 
Aerial photo
WARNING: Photo may not be current or correct
Aerial photo of KUKT (Quakertown Airport)
Photo by Salvatore A. Boccuti www.salboccuti.com
Photo taken 23-Mar-2008

Do you have a better or more recent aerial photo of Quakertown Airport that you would like to share? If so, please send us your photo.

 
Sectional chart

 
Airport distance calculator
Flying to Quakertown Airport? Find the distance to fly.

From to KUKT

Sunrise and sunset
Times for 01-Apr-2023
 Local
(UTC-4)
 Zulu
(UTC)
Morning civil twilight06:1910:19
Sunrise06:4610:46
Sunset19:2523:25
Evening civil twilight19:5223:52

Current date and time
Zulu (UTC)  01-Apr-2023 06:56:07
Local (UTC-4)  01-Apr-2023 02:56:07
 
METAR
KUKT 010635Z AUTO 21009G14KT 170V230 10SM BKN020 OVC042 14/12 A2979 RMK A01
KCKZ 
5nm SE 
010635Z AUTO 22009G16KT 10SM OVC020 14/12 A2980 RMK AO2
KXLL 
9nm NW 
010635Z AUTO 20005KT 10SM BKN026 OVC030 15/10 A2978 RMK AO2
KABE 
13nm N 
010551Z 00000KT 10SM OVC041 12/08 A2980 RMK AO2 SLP090 T01220078 10122 20094 58023 $
KDYL 
14nm SE 
010554Z AUTO 20007KT 180V240 10SM OVC023 16/10 A2981 RMK AO2 SLP095 T01560100 10167 20150 58020
KPTW 
14nm SW 
010554Z AUTO 20009KT 10SM BKN023 OVC044 14/10 A2983 RMK AO2 SLP098 T01440100 10150 20133 58024
KLOM 
19nm S 
010635Z AUTO 22010KT 10SM OVC020 15/11 A2980 RMK AO2 T01490115
TAF
KABE 
13nm N 
010537Z 0106/0206 21010KT P6SM VCSH OVC030 TEMPO 0106/0108 4SM -RA BR OVC015 FM010800 20018G30KT P6SM -SHRA OVC015 FM011600 23021G33KT P6SM BKN045 FM012100 26024G40KT P6SM -SHRA VCTS SCT025CB OVC070
NOTAMs
Click for the latest NOTAMs
NOTAMs are issued by the DoD/FAA and will open in a separate window not controlled by AirNav.

 

 
 

FBO, Fuel Providers, and Aircraft Ground Support

  
 Business Name 
 
 Contact 
 
 Services / Description 
 
Fuel Prices
 
Comments
  
Heartwood Aviation 215-538-3055
no information available

If you are affiliated with Heartwood Aviation and would like to show here your services, contact info, web link, logo, and more, click here
100LL
SS $6.25 
 Updated 22-Mar-2023
 
   write
SS=Self service
Update Fuel Prices
 

Would you like to see your business listed on this page?

 If your business provides an interesting product or service to pilots, flight crews, aircraft, or users of the Quakertown Airport, you should consider listing it here.  To start the listing process, click on the button below
 
Add a business
 

Other Pages about Quakertown Airport

www.bcaanet.org/...
 
Update a link
 
Copyright © AirNav, LLC. All rights reserved. Privacy Policy  Contact